Home   Weather   Lódz   Past weeks

Flag for Poland Past Weather in Lódz, Poland — Yesterday and Last 2 Weeks

Now
46 °F

Overcast.


Feels Like: 43 °F
Forecast: 23 / 41 °F
Wind: 5 mph from West

Location: Lodz

Current Time: Dec 11, 2016 at 3:24:24 am

Latest Report: Dec 11, 2016 at 1:00 am


Visibility: 7 mi

Pressure: 30.00 "Hg

Humidity: 90%

Dew Point: 43 °F

Location of LódzLocation

Past Weather in Lódz — Graph

°F

Lódz Temperature Yesterday

Maximum temperature yesterday: 50 °F (at 3:00 pm)
Minimum temperature yesterday: 44 °F (at 6:00 am)
Average temperature yesterday: 47 °F

High & Low Weather Summary for the Past Weeks

 TemperatureHumidityPressure
High50 °F (Dec 10, 3:00 pm)100% (Nov 26, 2:00 am)30.66 "Hg (Nov 26, 2:00 am)
Low24 °F (Nov 29, 2:00 am)57% (Dec 5, 2:00 pm)29.38 "Hg (Dec 2, 1:00 am)
Average34 °F89%30.15 "Hg
* Reported Nov 26 1:00 am — Dec 11 1:00 am, Lódz, Weather by CustomWeather, © 2016

Note: Actual official high and low records may vary slightly from our data, if they occured in-between our weather recording intervals... More about our weather records

Advertising

Lódz Weather History for the Previous 24 Hours

Scroll right to see more
 ConditionsComfort  
Time TempWeatherWind HumidityBarometerVisibility
1:00 am
Sun, Dec 11
46 °FOvercast.5 mph90%30.00 "Hg7 mi
12:00 am46 °FFog.7 mph90%30.01 "Hg6 mi
10:00 pm
Sat, Dec 10
47 °FLow clouds.7 mph91%30.01 "Hg5 mi
9:00 pm47 °FLow clouds.6 mph91%30.01 "Hg6 mi
8:00 pm47 °FLow clouds.7 mph93%30.00 "Hg5 mi
7:00 pm47 °FLight rain. Low clouds.7 mph95%30.00 "Hg2 mi
6:00 pm48 °FOvercast.8 mph91%29.99 "Hg6 mi
5:00 pm49 °FLight rain. Low clouds.9 mph87%29.98 "Hg10 mi
4:00 pm50 °FLight rain. Overcast.8 mph85%29.96 "Hg12 mi
3:00 pm50 °FLight rain. Overcast.9 mph84%29.98 "Hg12 mi
2:00 pm49 °FOvercast.10 mph84%29.98 "Hg10 mi
1:00 pm49 °FLight rain. Overcast.9 mph87%29.99 "Hg6 mi
12:00 pm49 °FLight rain. Low clouds.9 mph89%30.00 "Hg5 mi
11:00 am48 °FLow clouds.12 mph90%30.01 "Hg5 mi
10:00 am48 °FLight rain. Low clouds.12 mph92%30.02 "Hg4 mi
9:00 am47 °FFog.10 mph94%30.01 "Hg3 mi
8:00 am46 °FLow clouds.9 mph96%30.03 "Hg2 mi
7:00 am45 °FLight rain. Low clouds.7 mph98%30.04 "Hg1 mi
6:00 am44 °FLight rain. Low clouds.6 mph97%30.06 "Hg2 mi
5:00 am44 °FLight rain. Low clouds.6 mph95%30.09 "Hg3 mi
4:00 am44 °FOvercast.6 mph89%30.11 "Hg6 mi
3:00 am44 °FOvercast.7 mph89%30.14 "Hg6 mi
Weather by CustomWeather, © 2016

See weather overviewHow to use our weather pages